Back to catalog

DELTA 1 DEB

LostUNKNOWN
NORAD 28666·DEBRIS·🇺🇸 United States

Launched Jul 4, 1968 from Vandenberg Space Force Base

Loading…

Next Passes (next 24 hours)

TLE

StaleSource: Space-Track

Epoch: Oct 6, 2022, 06:38 UTC

1 28666U 68055P   22279.27667598  .00004481  00000-0  78876-2 0  9999
2 28666 120.5489 111.3467 1861514 136.2366 240.2079 10.70536169676725

Track DELTA 1 DEB in real time with AllMySat

Download on the App Store